This is the latest recevied weather packets stored in our database for station/object K1BES. If no packets are shown the sender has not sent any weather packets the latest 10 day(s).
| Time | Temp. | Humidity | Pressure | Rain* | Wind** | Luminosity | Snow |
|---|---|---|---|---|---|---|---|
| 1787402538 | 28.89° C | 87% | 1018.7 hPa | 0 mm | - | 195 W/m² | - |
| 1787402237 | 28.33° C | 87% | 1018.8 hPa | 0 mm | - | 128 W/m² | - |
| 1787401932 | 27.78° C | 89% | 1018.7 hPa | 0 mm | - | 99 W/m² | - |
| 1787401628 | 27.78° C | 90% | 1018.9 hPa | 0 mm | - | 77 W/m² | - |
| 1787401324 | 27.22° C | 91% | 1018.7 hPa | 0 mm | - | 65 W/m² | - |
| 1787401019 | 26.67° C | 92% | 1018.6 hPa | 0 mm | - | 71 W/m² | - |
| 1787400714 | 26.67° C | 93% | 1018.5 hPa | 0 mm | - | 62 W/m² | - |
| 1787400414 | 26.67° C | 94% | 1018.8 hPa | 0 mm | - | 57 W/m² | - |
| 1787400110 | 26.11° C | 94% | 1018.8 hPa | 0 mm | - | 55 W/m² | - |
| 1787399807 | 26.11° C | 94% | 1018.8 hPa | 0 mm | - | 48 W/m² | - |
| 1787399503 | 26.11° C | 95% | 1018.8 hPa | 0 mm | - | 41 W/m² | - |
| 1787399201 | 25.56° C | 95% | 1018.7 hPa | 0 mm | - | 37 W/m² | - |
| 1787398896 | 25.56° C | 95% | 1018.6 hPa | 0 mm | - | 31 W/m² | - |
| 1787398592 | 25.56° C | 95% | 1018.5 hPa | 0 mm | - | 26 W/m² | - |
| 1787398289 | 25.56° C | 95% | 1018.5 hPa | 0 mm | - | 21 W/m² | - |
| 1787397984 | 25.56° C | 95% | 1018.4 hPa | 0 mm | - | 16 W/m² | - |
| 1787397684 | 25.56° C | 95% | 1018.7 hPa | 0 mm | - | 11 W/m² | - |
| 1787397383 | 25.56° C | 95% | 1018.6 hPa | 0 mm | - | 8 W/m² | - |
| 1787397078 | 25.56° C | 95% | 1018.4 hPa | 0 mm | - | 4 W/m² | - |
| 1787396774 | 25.56° C | 95% | 1018.4 hPa | 0 mm | - | 3 W/m² | - |
| 1787396470 | 25.56° C | 95% | 1018.5 hPa | 0 mm | - | 1 W/m² | - |
| 1787396169 | 25.56° C | 95% | 1018.4 hPa | 0 mm | - | 1 W/m² | - |
| 1787395864 | 25.56° C | 95% | 1018.1 hPa | 0 mm | - | 0 W/m² | - |
| 1787395560 | 25.56° C | 95% | 1018.1 hPa | 0 mm | - | 0 W/m² | - |
| 1787395259 | 25.56° C | 95% | 1018.1 hPa | 0 mm | - | 0 W/m² | - |
* Rain latest hour (hover to see other rain measurements)
** Current wind speed in m/s (hover to see current wind gust speed)